TimeCEST,TemperatureF,Dew PointF,Humidity,Sea Level PressureIn,VisibilityMPH,Wind Direction,Wind SpeedMPH,Gust SpeedMPH,PrecipitationIn,Events,Conditions,WindDirDegrees,DateUTC
2:00 AM,71,69,93,29.86,6,South,4.6,,,,,180,2012-10-12 00:00:00
5:00 AM,70,68,93,29.86,6,SSE,5.8,,,,Overcast,160,2012-10-12 03:00:00
5:55 AM,69.8,68.0,94,29.86,-9999.0,North,-9999.0,-,N/A,,Mostly Cloudy,0,2012-10-12 03:55:00
6:55 AM,69.8,66.2,88,29.86,-9999.0,North,-9999.0,-,N/A,,Mostly Cloudy,0,2012-10-12 04:55:00
7:55 AM,69.8,66.2,88,29.86,-9999.0,North,-9999.0,-,N/A,Rain,Light Rain,0,2012-10-12 05:55:00
8:00 AM,70,67,88,29.85,6,SSW,5.8,,,,Overcast,210,2012-10-12 06:00:00
8:55 AM,69.8,68.0,94,29.86,-9999.0,North,-9999.0,-,N/A,,Mostly Cloudy,0,2012-10-12 06:55:00
9:55 AM,69.8,66.2,88,29.86,6.2,South,4.6,-,N/A,,Scattered Clouds,190,2012-10-12 07:55:00
10:55 AM,64.4,62.6,94,29.89,5.0,SSW,4.6,-,N/A,Rain,Rain,200,2012-10-12 08:55:00
11:00 AM,64,62,93,29.90,2,SSW,4.6,,,Rain,Heavy Rain,200,2012-10-12 09:00:00
11:55 AM,64.4,62.6,94,29.89,6.2,SSW,4.6,-,N/A,Rain,Light Rain,210,2012-10-12 09:55:00
12:55 PM,66.2,62.6,88,29.92,6.2,South,3.5,-,N/A,,Scattered Clouds,190,2012-10-12 10:55:00
1:55 PM,68.0,64.4,88,29.86,6.2,Calm,Calm,-,N/A,,Scattered Clouds,0,2012-10-12 11:55:00
2:00 PM,69,64,81,29.86,6,Calm,Calm,,,,,,2012-10-12 12:00:00
3:55 PM,75.2,68.0,78,29.86,6.2,Calm,Calm,-,N/A,,Scattered Clouds,0,2012-10-12 13:55:00
4:55 PM,71.6,69.8,94,29.86,6.2,Calm,Calm,-,N/A,,Scattered Clouds,0,2012-10-12 14:55:00
5:00 PM,72,69,87,29.85,6,Calm,Calm,,,,Partly Cloudy,,2012-10-12 15:00:00
5:55 PM,73.4,71.6,94,29.86,6.2,Calm,Calm,-,N/A,,Scattered Clouds,0,2012-10-12 15:55:00
6:55 PM,73.4,69.8,88,29.86,6.2,Calm,Calm,-,N/A,,Scattered Clouds,0,2012-10-12 16:55:00
8:55 PM,69.8,68.0,94,29.83,6.2,Calm,Calm,-,N/A,,Scattered Clouds,0,2012-10-12 18:55:00
10:55 PM,69.8,66.2,88,29.89,6.2,Calm,Calm,-,N/A,,Scattered Clouds,0,2012-10-12 20:55:00
11:55 PM,69.8,66.2,88,29.86,6.2,Calm,Calm,-,N/A,,Scattered Clouds,0,2012-10-12 21:55:00